Time,TemperatureF,DewpointF,PressureIn,WindDirection,WindDirectionDegrees,WindSpeedMPH,WindSpeedGustMPH,Humidity,HourlyPrecipIn,Conditions,Clouds,dailyrainin,SolarRadiationWatts/m^2,SoftwareType,DateUTC
2013-09-08 00:01:00,68.0,56.0,-100.00,SE,138,7.0,14.0,65,0.00,,,0.01,0.000000,,2013-09-08 07:01:00,
2013-09-08 00:02:00,67.0,54.0,-100.00,SE,134,8.0,12.0,63,0.00,,,0.01,0.000000,,2013-09-08 07:02:00,
2013-09-08 00:42:00,67.0,54.0,-100.00,SE,134,8.0,12.0,63,0.00,,,0.01,0.000000,,2013-09-08 07:42:00,
2013-09-08 00:52:00,67.0,54.0,-100.00,SE,134,8.0,12.0,63,0.00,,,0.01,0.000000,,2013-09-08 07:52:00,
2013-09-08 01:02:00,67.0,54.0,-100.00,SE,135,7.0,13.0,62,0.00,,,0.01,0.000000,,2013-09-08 08:02:00,
2013-09-08 01:22:00,67.0,54.0,-100.00,SE,135,7.0,13.0,62,0.00,,,0.01,0.000000,,2013-09-08 08:22:00,
2013-09-08 01:32:00,67.0,54.0,-100.00,SE,135,7.0,13.0,62,0.00,,,0.01,0.000000,,2013-09-08 08:32:00,
2013-09-08 01:42:00,67.0,54.0,-100.00,SE,135,7.0,13.0,62,0.00,,,0.01,0.000000,,2013-09-08 08:42:00,
2013-09-08 01:52:00,67.0,54.0,-100.00,SE,135,7.0,13.0,62,0.00,,,0.01,0.000000,,2013-09-08 08:52:00,
2013-09-08 02:02:00,67.0,53.0,-100.00,SE,137,5.0,10.0,60,0.00,,,0.01,0.000000,,2013-09-08 09:02:00,
2013-09-08 02:43:00,67.0,53.0,-100.00,SE,137,5.0,10.0,60,0.00,,,0.01,0.000000,,2013-09-08 09:43:00,
2013-09-08 02:54:00,67.0,53.0,-100.00,SE,137,5.0,10.0,60,0.00,,,0.01,0.000000,,2013-09-08 09:54:00,
2013-09-08 03:02:00,64.0,50.0,-100.00,ESE,108,4.0,8.0,61,0.00,,,0.01,0.000000,,2013-09-08 10:02:00,
2013-09-08 03:42:00,64.0,50.0,-100.00,ESE,108,4.0,8.0,61,0.00,,,0.01,0.000000,,2013-09-08 10:42:00,
2013-09-08 03:53:00,64.0,50.0,-100.00,ESE,108,4.0,8.0,61,0.00,,,0.01,0.000000,,2013-09-08 10:53:00,
2013-09-08 04:02:00,63.0,49.0,-100.00,SE,139,2.0,5.0,61,0.00,,,-99.99,0.000000,,2013-09-08 11:02:00,
2013-09-08 04:42:00,63.0,49.0,-100.00,SE,139,2.0,5.0,61,0.00,,,-99.99,0.000000,,2013-09-08 11:42:00,
2013-09-08 04:52:00,63.0,49.0,-100.00,SE,139,2.0,5.0,61,0.00,,,-99.99,0.000000,,2013-09-08 11:52:00,
2013-09-08 05:42:00,62.0,46.0,-100.00,East,84,3.0,5.0,56,0.00,,,0.01,0.000000,,2013-09-08 12:42:00,
2013-09-08 05:52:00,62.0,46.0,-100.00,East,84,3.0,5.0,56,0.00,,,0.01,0.000000,,2013-09-08 12:52:00,
2013-09-08 06:01:00,62.0,46.0,-100.00,East,84,3.0,5.0,56,0.00,,,0.01,0.000000,,2013-09-08 13:01:00,
2013-09-08 06:02:00,61.0,42.0,-100.00,East,99,4.0,5.0,49,0.00,,,0.01,0.000000,,2013-09-08 13:02:00,
2013-09-08 06:42:00,61.0,42.0,-100.00,East,99,4.0,5.0,49,0.00,,,0.01,0.000000,,2013-09-08 13:42:00,
2013-09-08 06:52:00,61.0,42.0,-100.00,East,99,4.0,5.0,49,0.00,,,0.01,0.000000,,2013-09-08 13:52:00,
2013-09-08 07:02:00,62.0,39.0,-100.00,East,98,2.0,5.0,43,0.00,,,0.01,7.000000,,2013-09-08 14:02:00,
2013-09-08 07:42:00,62.0,39.0,-100.00,East,98,2.0,5.0,43,0.00,,,0.01,7.000000,,2013-09-08 14:42:00,
2013-09-08 07:52:00,62.0,39.0,-100.00,East,98,2.0,5.0,43,0.00,,,0.01,7.000000,,2013-09-08 14:52:00,
2013-09-08 08:02:00,73.0,39.0,-100.00,ENE,77,2.0,4.0,29,0.00,,,0.01,137.000000,,2013-09-08 15:02:00,
2013-09-08 08:45:00,73.0,39.0,-100.00,ENE,77,2.0,4.0,29,0.00,,,0.01,137.000000,,2013-09-08 15:45:00,
2013-09-08 08:54:00,73.0,39.0,-100.00,ENE,77,2.0,4.0,29,0.00,,,0.01,137.000000,,2013-09-08 15:54:00,
2013-09-08 09:02:00,77.0,36.0,-100.00,West,278,5.0,11.0,23,0.00,,,0.01,397.000000,,2013-09-08 16:02:00,
2013-09-08 09:44:00,77.0,36.0,-100.00,West,278,5.0,11.0,23,0.00,,,0.01,397.000000,,2013-09-08 16:44:00,
2013-09-08 09:53:00,77.0,36.0,-100.00,West,278,5.0,11.0,23,0.00,,,0.01,397.000000,,2013-09-08 16:53:00,
2013-09-08 10:43:00,79.0,36.0,-100.00,SW,226,6.0,9.0,21,0.00,,,0.01,634.000000,,2013-09-08 17:43:00,
2013-09-08 11:22:00,81.0,39.0,-100.00,SW,234,6.0,12.0,22,0.00,,,0.01,832.000000,,2013-09-08 18:22:00,
2013-09-08 11:32:00,81.0,39.0,-100.00,SW,234,6.0,12.0,22,0.00,,,0.01,832.000000,,2013-09-08 18:32:00,
2013-09-08 11:42:00,81.0,39.0,-100.00,SW,234,6.0,12.0,22,0.00,,,0.01,832.000000,,2013-09-08 18:42:00,
2013-09-08 11:52:00,81.0,39.0,-100.00,SW,234,6.0,12.0,22,0.00,,,0.01,832.000000,,2013-09-08 18:52:00,
2013-09-08 12:01:00,81.0,39.0,-100.00,SW,234,6.0,12.0,22,0.00,,,0.01,832.000000,,2013-09-08 19:01:00,
2013-09-08 12:02:00,83.0,38.0,-100.00,WNW,284,8.0,13.0,20,0.00,,,0.01,958.000000,,2013-09-08 19:02:00,
2013-09-08 12:42:00,83.0,38.0,-100.00,WNW,284,8.0,13.0,20,0.00,,,0.01,958.000000,,2013-09-08 19:42:00,
2013-09-08 12:52:00,83.0,38.0,-100.00,WNW,284,8.0,13.0,20,0.00,,,0.01,958.000000,,2013-09-08 19:52:00,
2013-09-08 15:02:00,83.0,42.0,-100.00,ESE,121,7.0,13.0,24,0.00,,,0.00,950.000000,,2013-09-08 22:02:00,
2013-09-08 15:44:00,83.0,42.0,-100.00,ESE,121,7.0,13.0,24,0.00,,,0.00,950.000000,,2013-09-08 22:44:00,
2013-09-08 15:53:00,83.0,42.0,-100.00,ESE,121,7.0,13.0,24,0.00,,,0.00,950.000000,,2013-09-08 22:53:00,
2013-09-08 16:02:00,83.0,44.0,-100.00,SE,143,10.0,15.0,25,0.00,,,0.00,831.000000,,2013-09-08 23:02:00,
2013-09-08 16:22:00,83.0,44.0,-100.00,SE,143,10.0,15.0,25,0.00,,,0.00,831.000000,,2013-09-08 23:22:00,
2013-09-08 16:34:00,83.0,44.0,-100.00,SE,143,10.0,15.0,25,0.00,,,0.00,831.000000,,2013-09-08 23:34:00,
2013-09-08 16:42:00,83.0,44.0,-100.00,SE,143,10.0,15.0,25,0.00,,,0.00,831.000000,,2013-09-08 23:42:00,
2013-09-08 16:52:00,83.0,44.0,-100.00,SE,143,10.0,15.0,25,0.00,,,0.00,831.000000,,2013-09-08 23:52:00,
2013-09-08 17:22:00,80.0,43.0,-100.00,SE,135,9.0,16.0,27,0.00,,,0.00,635.000000,,2013-09-09 00:22:00,
2013-09-08 17:32:00,80.0,43.0,-100.00,SE,135,9.0,16.0,27,0.00,,,0.00,635.000000,,2013-09-09 00:32:00,
2013-09-08 17:42:00,80.0,43.0,-100.00,SE,135,9.0,16.0,27,0.00,,,0.00,635.000000,,2013-09-09 00:42:00,
2013-09-08 17:52:00,80.0,43.0,-100.00,SE,135,9.0,16.0,27,0.00,,,0.00,635.000000,,2013-09-09 00:52:00,
2013-09-08 18:01:00,80.0,43.0,-100.00,SE,135,9.0,16.0,27,0.00,,,0.00,635.000000,,2013-09-09 01:01:00,
2013-09-08 18:02:00,76.0,46.0,-100.00,SE,141,7.0,14.0,35,0.00,,,0.00,202.000000,,2013-09-09 01:02:00,
2013-09-08 18:42:00,76.0,46.0,-100.00,SE,141,7.0,14.0,35,0.00,,,0.00,202.000000,,2013-09-09 01:42:00,
2013-09-08 18:52:00,76.0,46.0,-100.00,SE,141,7.0,14.0,35,0.00,,,0.00,202.000000,,2013-09-09 01:52:00,
2013-09-08 19:02:00,73.0,41.0,-100.00,SE,139,7.0,13.0,31,0.00,,,0.00,60.000000,,2013-09-09 02:02:00,
2013-09-08 19:22:00,73.0,41.0,-100.00,SE,139,7.0,13.0,31,0.00,,,0.00,60.000000,,2013-09-09 02:22:00,
2013-09-08 19:32:00,73.0,41.0,-100.00,SE,139,7.0,13.0,31,0.00,,,0.00,60.000000,,2013-09-09 02:32:00,
2013-09-08 19:42:00,73.0,41.0,-100.00,SE,139,7.0,13.0,31,0.00,,,0.00,60.000000,,2013-09-09 02:42:00,
2013-09-08 19:53:00,73.0,41.0,-100.00,SE,139,7.0,13.0,31,0.00,,,0.00,60.000000,,2013-09-09 02:53:00,
2013-09-08 20:02:00,72.0,39.0,-100.00,SE,130,7.0,12.0,30,0.00,,,0.00,1.000000,,2013-09-09 03:02:00,
2013-09-08 20:44:00,72.0,39.0,-100.00,SE,130,7.0,12.0,30,0.00,,,0.00,1.000000,,2013-09-09 03:44:00,
2013-09-08 20:55:00,72.0,39.0,-100.00,SE,130,7.0,12.0,30,0.00,,,0.00,1.000000,,2013-09-09 03:55:00,
2013-09-08 21:02:00,71.0,40.0,-100.00,SSE,156,4.0,11.0,32,0.00,,,0.00,0.000000,,2013-09-09 04:02:00,
2013-09-08 21:43:00,71.0,40.0,-100.00,SSE,156,4.0,11.0,32,0.00,,,0.00,0.000000,,2013-09-09 04:43:00,
2013-09-08 21:54:00,71.0,40.0,-100.00,SSE,156,4.0,11.0,32,0.00,,,0.00,0.000000,,2013-09-09 04:54:00,
2013-09-08 22:02:00,69.0,39.0,-100.00,SSE,162,3.0,9.0,33,0.00,,,0.00,0.000000,,2013-09-09 05:02:00,
2013-09-08 22:23:00,69.0,39.0,-100.00,SSE,162,3.0,9.0,33,0.00,,,0.00,0.000000,,2013-09-09 05:23:00,
2013-09-08 22:34:00,69.0,39.0,-100.00,SSE,162,3.0,9.0,33,0.00,,,0.00,0.000000,,2013-09-09 05:34:00,
2013-09-08 22:43:00,69.0,39.0,-100.00,SSE,162,3.0,9.0,33,0.00,,,0.00,0.000000,,2013-09-09 05:43:00,
2013-09-08 22:53:00,69.0,39.0,-100.00,SSE,162,3.0,9.0,33,0.00,,,0.00,0.000000,,2013-09-09 05:53:00,
2013-09-08 23:22:00,70.0,39.0,-100.00,NW,311,4.0,7.0,32,0.00,,,0.00,0.000000,,2013-09-09 06:22:00,
2013-09-08 23:32:00,70.0,39.0,-100.00,NW,311,4.0,7.0,32,0.00,,,0.00,0.000000,,2013-09-09 06:32:00,
2013-09-08 23:42:00,70.0,39.0,-100.00,NW,311,4.0,7.0,32,0.00,,,0.00,0.000000,,2013-09-09 06:42:00,
2013-09-08 23:52:00,70.0,39.0,-100.00,NW,311,4.0,7.0,32,0.00,,,0.00,0.000000,,2013-09-09 06:52:00,